ASGARDIA 1 (43049 NORAD) Tracking and Keplerian Element Data

This shows tracking and keplerian element data for the satellite.

Feedback or suggestion? Click here.




ElementValue
Catalog43049
NameASGARDIA 1
Epoch Orbit5771
Epoch Day350.89444233
Epoch Year2018
RAAN230.3154
Inclination51.6388
Eccentricity0.0002007
Argument of Perigee213.1078
Mean Anonmoly146.9781
Mean Motion15.40115371
Decay Rate1.718E-05
L11 43049U 17071N 18350.89444233 .00001718 00000-0 52112-4 0 9992
L22 43049 51.6388 230.3154 0002007 213.1078 146.9781 15.40115371 57716

Live tracking and technical data element details for ASGARDIA 1 (NORAD 43049). ASGARDIA 1 can be tracked NOW for your location showing map with azimuth and elevation plus other details from your city location.

Track the satellite on the map from your city or location and see movement details for azimuth, elevation, latitude, longitude, range, height, and movement on the map or in text.







IsCatalogInMostPopularTable: catalog: 43049, numindb: 170
Update: records affected: 1



GetName: 43049 ASGARDIA 1

Hit Count: updated at: Tue, 18 Dec 2018 21:58:37 GMT